Location: Newark
(33.8369°S, 148.6756°E)
Time: 17:54:03
(UTC+00:00)

N. Korean satellite - Visible Passes

Search period start: 22 September 2020 00:00
Search period end: 02 October 2020 00:00
Orbit: 455 x 503 km, 97.2° (Epoch: 21 September)

Date Brightness Start Highest point End Pass type
(mag) Time Alt. Az. Time Alt. Az. Time Alt. Az.
22 Sep 9.9 18:02:27 10° ENE 18:04:22 14° ESE 18:06:16 10° SE visible
23 Sep 10.1 08:38:29 10° SW 08:40:04 13° WSW 08:41:40 10° W visible
23 Sep 6.5 19:07:57 10° N 19:11:24 60° W 19:14:52 10° SSW visible
24 Sep 7.4 18:42:02 10° NNE 18:45:25 52° ESE 18:48:50 10° S visible
25 Sep 9.2 18:16:47 10° NE 18:19:32 22° ESE 18:22:17 10° SSE visible
26 Sep 10.3 17:53:24 10° ESE 17:53:43 10° ESE 17:54:04 10° ESE visible
27 Sep 6.4 18:57:11 10° NNE 19:00:39 89° WNW 19:04:09 10° SSW visible
28 Sep 8.2 18:31:31 10° NE 18:34:42 35° ESE 18:37:55 10° S visible
29 Sep 9.7 18:06:39 10° ENE 18:08:51 16° ESE 18:11:03 10° SSE visible
30 Sep 10.4 08:43:28 10° SW 08:44:34 11° WSW 08:45:40 10° W visible
30 Sep 6.6 19:12:32 10° N 19:15:54 49° W 19:19:18 10° SSW visible
01 Oct 7.0 18:46:29 10° NNE 18:49:53 62° ESE 18:53:20 10° S visible
